Starlink 5444

operational
NORAD ID: 54768 Int'l Des: 2022-175 Owner: SPXS Country: US Constellation: starlink
LEOCIRCULAR

Starlink 5444について

説明を読み込み中...

リアルタイム位置

3D地球を読み込み中...

次回通過

高度履歴

Altitude vs Time

uPlot chart will show altitude changes over time

軌道要素

1 54768U 22175L 26035.10345532 .00000237 00000-0 33006-4 0 9994
2 54768 53.2158 180.2832 0001839 85.6383 274.4819 15.08837464175053
Epoch: Feb 4, 2026 • Age: 21 hours

現在のステータス

高度 540.2 km
速度 7.59 km/s
衛星直下点 3.60°N, 140.42°W
打ち上げ日 Dec 17, 2022
運用期間 3.1 years
タイプ internet

技術仕様

分類 Payload
質量 305.00 kg
乾燥質量 290.00 kg
総質量 305.00 kg
長さ 0.20 m
直径 2.80 m
スパン 9.00 m
形状 Box + pan
製造者 SPXS
バスタイプ Starlink
フェーズステータス In Orbit
所有者/国 SPXS/US

大規模コンステレーション

Loading constellations...